Latest Weather Observations for Bankstown

IDN60901

Issued at 3:51 pm EST Sunday 30 August 2015 (issued every 10 minutes, with the page automatically refreshed every 10 minutes)

About weather observations | Map of Sydney area stations | Latest observations for Sydney area | Other Formats
Station Details ID: 066137 Name: BANKSTOWN AIRPORT AWS Lat: -33.92 Lon: 150.99 Height: 6.5 m
Data from the previous 72 hours. | See also: Recent months at Bankstown
Date/Time
EST
Tmp

°C
App
Tmp
°C
Dew
Point
°C
Rel
Hum
%
Delta-T

°C
Wind Press
QNH
hPa
Press
MSL
hPa
Rain
since
9 am
mm
Dir
 
Spd
km/h
Gust
km/h
Spd
kts
Gust
kts
30/03:30pm 16.6 11.0 3.3 41 6.1 SE 22 28 12 15 1017.3 1017.3 0.0
30/03:00pm 16.3 11.2 3.0 41 6.0 SE 19 28 10 15 1017.4 1017.4 0.0
30/02:30pm 17.0 12.9 2.2 37 6.7 SSE 13 17 7 9 1017.5 1017.5 0.0
30/02:00pm 17.5 13.0 1.9 35 7.0 S 15 22 8 12 1017.5 1017.5 0.0
30/01:30pm 16.9 12.6 1.0 34 7.0 SSE 13 20 7 11 1017.7 1017.7 0.0
30/01:00pm 17.3 13.1 1.7 35 7.0 S 13 19 7 10 1018.0 1018.0 0.0
30/12:30pm 17.2 12.9 1.2 34 7.1 ESE 13 24 7 13 1018.3 1018.3 0.0
30/12:00pm 17.2 12.6 1.6 35 6.9 SE 15 24 8 13 1018.9 1018.9 0.0
30/11:30am 16.7 13.4 2.3 38 6.5 S 9 15 5 8 1019.4 1019.4 0.0
30/11:00am 15.6 12.1 1.3 38 6.2 WSW 9 17 5 9 1019.9 1019.9 0.0
30/10:30am 14.9 11.0 1.4 40 5.9 SW 11 19 6 10 1020.1 1020.1 0.0
30/10:00am 14.3 9.3 1.6 42 5.5 WSW 17 22 9 12 1020.4 1020.4 0.0
30/09:30am 13.4 7.8 1.4 44 5.1 WSW 20 24 11 13 1020.4 1020.4 0.0
30/09:00am 12.3 7.4 1.9 49 4.4 SW 17 24 9 13 1020.7 1020.7 0.0
30/08:30am 10.9 6.1 2.7 57 3.5 SW 17 24 9 13 1020.6 1020.6 0.0
30/08:00am 9.6 5.5 2.2 60 3.1 SW 13 20 7 11 1020.6 1020.6 0.0
30/07:30am 8.5 5.5 2.1 64 2.7 W 7 15 4 8 1020.5 1020.5 0.0
30/07:00am 7.1 4.2 2.4 72 1.9 NW 7 9 4 5 1020.3 1020.3 0.0
30/06:30am 6.1 3.0 1.4 72 1.9 WNW 7 13 4 7 1020.1 1020.1 0.0
30/06:00am 6.5 3.4 1.6 71 2.0 W 7 9 4 5 1019.9 1019.9 0.0
30/05:30am 6.1 2.9 0.9 69 2.0 W 7 9 4 5 1019.6 1019.6 0.0
30/05:00am 6.4 2.8 0.9 68 2.2 W 9 13 5 7 1019.5 1019.5 0.0
30/04:30am 7.0 3.8 0.9 65 2.4 WSW 7 11 4 6 1019.4 1019.4 0.0
30/04:00am 7.2 4.0 0.9 64 2.5 W 7 9 4 5 1019.4 1019.4 0.0
30/03:30am 7.3 3.4 1.0 64 2.5 W 11 15 6 8 1019.5 1019.5 0.0
30/03:00am 7.4 3.9 1.0 64 2.6 WSW 9 13 5 7 1019.7 1019.7 0.0
30/02:30am 7.2 3.6 0.9 64 2.5 W 9 13 5 7 1019.9 1019.9 0.0
30/02:00am 7.5 4.1 1.6 66 2.4 W 9 11 5 6 1020.2 1020.2 0.0
30/01:30am 7.6 4.7 1.2 64 2.6 SW 6 7 3 4 1020.6 1020.6 0.0
30/01:00am 7.8 4.3 1.4 64 2.6 SW 9 15 5 8 1020.8 1020.8 0.0
30/12:30am 7.8 5.7 1.6 65 2.5 SW 2 7 1 4 1021.0 1021.0 0.0
30/12:00am 8.0 5.2 2.0 66 2.5 SSW 6 9 3 5 1021.0 1021.0 0.0
 
Date/Time
EST
Tmp

°C
App
Tmp
°C
Dew
Point
°C
Rel
Hum
%
Delta-T

°C
Wind Press
QNH
hPa
Press
MSL
hPa
Rain
since
9 am
mm
Dir
 
Spd
km/h
Gust
km/h
Spd
kts
Gust
kts
29/11:30pm 7.8 4.4 2.1 67 2.4 SSW 9 13 5 7 1021.0 1021.0 0.0
29/11:00pm 8.3 5.5 2.3 66 2.5 SSW 6 7 3 4 1021.2 1021.2 0.0
29/10:30pm 9.0 6.8 1.0 57 3.3 SSW 2 7 1 4 1021.2 1021.2 0.0
29/10:00pm 10.0 7.9 1.4 55 3.6 SSW 2 7 1 4 1021.2 1021.2 0.0
29/09:30pm 9.8 6.6 0.9 54 3.6 SSW 7 9 4 5 1021.2 1021.2 0.0
29/09:00pm 9.8 6.2 0.4 52 3.8 SSW 9 11 5 6 1021.1 1021.1 0.0
29/08:30pm 11.4 6.6 0.5 47 4.5 SW 15 17 8 9 1020.6 1020.6 0.0
29/08:00pm 11.3 7.7 0.7 48 4.4 SW 9 13 5 7 1020.3 1020.3 0.0
29/07:30pm 13.0 9.7 0.4 42 5.3 SSE 7 9 4 5 1019.9 1019.9 0.0
29/07:00pm 13.4 9.1 0.8 42 5.3 SE 13 15 7 8 1019.4 1019.4 0.0
29/06:30pm 14.5 10.8 0.0 37 6.1 SSE 9 13 5 7 1019.0 1019.0 0.0
29/06:00pm 14.7 11.2 -1.0 34 6.4 SSW 7 11 4 6 1018.6 1018.6 0.0
29/05:30pm 16.5 11.8 -1.6 29 7.5 SW 13 17 7 9 1018.3 1018.3 0.0
29/05:00pm 17.6 12.1 -2.1 26 8.1 SW 17 24 9 13 1017.9 1017.9 0.0
29/04:30pm 18.2 12.5 -0.6 28 8.1 SSW 19 26 10 14 1017.8 1017.8 0.0
29/04:00pm 18.8 13.5 -0.6 27 8.4 SW 17 22 9 12 1017.8 1017.8 0.0
29/03:30pm 19.4 14.6 -0.1 27 8.5 W 15 22 8 12 1017.7 1017.7 0.0
29/03:00pm 19.6 15.8 2.0 31 8.0 NW 11 20 6 11 1017.8 1017.8 0.0
29/02:30pm 18.9 14.7 1.9 32 7.7 S 13 32 7 17 1018.0 1018.0 0.0
29/02:00pm 18.4 14.0 0.1 29 8.0 WNW 13 17 7 9 1018.5 1018.5 0.0
29/01:30pm 17.7 13.9 1.7 34 7.2 W 11 19 6 10 1018.8 1018.8 0.0
29/01:00pm 18.0 13.6 0.2 30 7.7 WSW 13 20 7 11 1019.4 1019.4 0.0
29/12:30pm 17.3 13.0 1.3 34 7.1 WSW 13 19 7 10 1020.1 1020.1 0.0
29/12:00pm 17.4 13.6 1.8 35 7.0 W 11 19 6 10 1020.8 1020.8 0.0
29/11:30am 17.3 13.3 2.9 38 6.6 WNW 13 17 7 9 1021.2 1021.2 0.0
29/11:00am 16.4 12.6 1.7 37 6.5 WNW 11 19 6 10 1021.6 1021.6 0.0
29/10:30am 15.9 12.7 3.0 42 5.9 NW 9 15 5 8 1021.8 1021.8 0.0
29/10:00am 15.1 12.1 3.9 47 5.1 NW 9 13 5 7 1022.1 1022.1 0.0
29/09:30am 13.8 10.7 5.4 57 3.9 NW 11 13 6 7 1022.3 1022.3 0.0
29/09:00am 12.3 9.7 6.1 66 2.9 NW 9 13 5 7 1022.7 1022.7 0.0
29/08:30am 11.0 8.5 6.4 73 2.2 NW 9 13 5 7 1023.1 1023.1 0.0
29/08:00am 9.8 7.7 6.5 80 1.5 WNW 7 9 4 5 1023.2 1023.2 0.0
29/07:30am 7.9 7.0 6.0 88 0.9 CALM 0 0 0 0 1023.0 1023.0 0.0
29/07:00am 6.4 5.2 4.6 88 0.8 CALM 0 7 0 4 1022.8 1022.8 0.0
29/06:30am 5.8 4.1 3.8 87 0.8 NW 2 7 1 4 1022.5 1022.5 0.0
29/06:00am 5.8 3.3 3.5 85 1.0 NW 6 6 3 3 1022.3 1022.3 0.0
29/05:30am 7.1 4.8 4.8 85 1.0 NW 6 7 3 4 1022.1 1022.1 0.0
29/05:00am 7.5 5.1 5.1 85 1.1 NW 7 9 4 5 1022.1 1022.1 0.0
29/04:30am 7.7 6.6 5.3 85 1.1 CALM 0 0 0 0 1022.1 1022.1 0.0
29/04:00am 7.8 6.8 5.6 86 1.0 CALM 0 0 0 0 1021.9 1021.9 0.0
29/03:30am 8.0 6.3 6.0 87 0.9 SW 4 6 2 3 1022.0 1022.0 0.0
29/03:00am 7.9 5.8 5.7 86 1.0 SW 6 7 3 4 1022.2 1022.2 0.0
29/02:30am 8.3 6.3 6.3 87 0.9 SW 6 6 3 3 1022.3 1022.3 0.0
29/02:00am 8.2 7.3 6.2 87 0.9 CALM 0 0 0 0 1022.5 1022.5 0.0
29/01:30am 7.6 6.6 5.4 86 1.0 CALM 0 0 0 0 1022.9 1022.9 0.0
29/01:00am 7.5 6.4 5.1 85 1.1 CALM 0 0 0 0 1022.9 1022.9 0.0
29/12:30am 8.5 7.6 6.1 85 1.1 CALM 0 0 0 0 1022.9 1022.9 0.0
29/12:00am 9.0 8.3 6.8 86 1.0 CALM 0 0 0 0 1023.0 1023.0 0.0
 
Date/Time
EST
Tmp

°C
App
Tmp
°C
Dew
Point
°C
Rel
Hum
%
Delta-T

°C
Wind Press
QNH
hPa
Press
MSL
hPa
Rain
since
9 am
mm
Dir
 
Spd
km/h
Gust
km/h
Spd
kts
Gust
kts
28/11:30pm 9.7 9.1 7.5 86 1.0 CALM 0 0 0 0 1023.0 1023.0 0.0
28/11:00pm 8.8 7.9 6.1 83 1.2 CALM 0 0 0 0 1023.1 1023.1 0.0
28/10:30pm 9.5 8.7 6.6 82 1.4 CALM 0 0 0 0 1023.1 1023.1 0.0
28/10:00pm 10.7 10.1 7.4 80 1.6 CALM 0 0 0 0 1023.1 1023.1 0.0
28/09:30pm 10.8 10.1 7.1 78 1.8 CALM 0 0 0 0 1023.0 1023.0 0.0
28/09:00pm 12.2 11.7 7.7 74 2.2 CALM 0 0 0 0 1022.8 1022.8 0.0
28/08:30pm 12.3 10.5 8.0 75 2.1 SW 7 9 4 5 1022.6 1022.6 0.0
28/08:00pm 12.5 10.6 7.4 71 2.5 SW 7 11 4 6 1022.3 1022.3 0.0
28/07:30pm 13.4 11.5 7.4 67 2.9 SSW 7 9 4 5 1021.8 1021.8 0.0
28/07:00pm 14.8 12.6 6.1 56 4.2 SSE 7 11 4 6 1021.6 1021.6 0.0
28/06:30pm 15.7 12.8 6.7 55 4.4 SE 11 15 6 8 1021.2 1021.2 0.0
28/06:00pm 15.6 12.8 6.9 56 4.3 SSE 11 15 6 8 1020.9 1020.9 0.0
28/05:30pm 16.4 13.1 6.5 52 4.8 SE 13 17 7 9 1020.5 1020.5 0.0
28/05:00pm 16.7 13.0 6.2 50 5.1 SE 15 20 8 11 1020.2 1020.2 0.0
28/04:30pm 17.6 13.4 5.9 46 5.7 SE 17 20 9 11 1019.7 1019.7 0.0
28/04:00pm 18.0 14.1 3.5 38 6.7 SSW 13 17 7 9 1019.4 1019.4 0.0
28/03:30pm 18.4 14.0 2.7 35 7.2 SSW 15 22 8 12 1019.3 1019.3 0.0
28/03:00pm 18.7 13.9 2.5 34 7.4 SW 17 22 9 12 1018.9 1018.9 0.0
28/02:30pm 19.0 14.2 2.8 34 7.5 WSW 17 24 9 13 1018.8 1018.8 0.0
28/02:00pm 19.5 14.2 3.2 34 7.6 SSW 20 28 11 15 1018.7 1018.7 0.0
28/01:30pm 18.5 13.4 3.2 36 7.1 SW 19 26 10 14 1018.8 1018.8 0.0
28/01:00pm 18.8 14.4 2.6 34 7.4 SSW 15 24 8 13 1018.9 1018.9 0.0
28/12:30pm 18.5 13.1 2.4 34 7.4 S 20 30 11 16 1019.2 1019.2 0.0
28/12:00pm 18.3 13.7 3.8 38 6.8 WSW 17 28 9 15 1019.8 1019.8 0.0
28/11:30am 17.6 12.4 2.4 36 6.9 WSW 19 28 10 15 1020.0 1020.0 0.0
28/11:00am 17.2 12.2 3.5 40 6.3 WSW 19 26 10 14 1020.2 1020.2 0.0
28/10:30am 16.5 10.7 2.5 39 6.3 WSW 22 33 12 18 1020.1 1020.1 0.0
28/10:00am 15.8 9.7 2.9 42 5.8 SW 24 33 13 18 1020.2 1020.2 0.0
28/09:30am 15.3 9.9 2.5 42 5.7 WSW 20 35 11 19 1020.2 1020.2 0.0
28/09:00am 15.4 9.8 3.5 45 5.4 WSW 22 32 12 17 1020.0 1020.0 0.0
28/08:30am 13.9 9.9 3.1 48 4.8 WNW 13 20 7 11 1019.7 1019.7 0.0
28/08:00am 12.7 9.3 3.9 55 3.9 NW 11 15 6 8 1019.4 1019.4 0.0
28/07:30am 11.1 7.4 4.6 64 2.9 NW 13 17 7 9 1018.9 1018.9 0.0
28/07:00am 9.7 6.0 4.3 69 2.4 NNW 13 17 7 9 1018.5 1018.5 0.0
28/06:30am 8.3 3.7 3.9 74 1.9 NW 17 19 9 10 1018.2 1018.2 0.0
28/06:00am 7.5 3.6 3.6 76 1.7 NW 13 17 7 9 1018.1 1018.1 0.0
28/05:30am 8.0 4.6 4.0 76 1.7 NNW 11 13 6 7 1017.7 1017.7 0.0
28/05:00am 7.6 3.9 4.6 81 1.3 NW 13 17 7 9 1017.4 1017.4 0.0
28/04:30am 7.0 3.8 3.3 77 1.6 NW 9 9 5 5 1017.3 1017.3 0.0
28/04:00am 8.3 4.9 4.1 75 1.8 NW 11 15 6 8 1017.0 1017.0 0.0
28/03:30am 8.7 5.0 4.3 74 1.9 NW 13 17 7 9 1016.9 1016.9 0.0
28/03:00am 8.9 5.2 4.7 75 1.9 NW 13 17 7 9 1016.9 1016.9 0.0
28/02:30am 8.2 5.7 4.0 75 1.8 NNW 6 9 3 5 1017.2 1017.2 0.0
28/02:00am 8.4 5.4 4.0 74 1.9 NNW 9 15 5 8 1017.5 1017.5 0.0
28/01:30am 9.2 5.8 4.2 71 2.2 NNW 11 13 6 7 1017.8 1017.8 0.0
28/01:00am 9.2 5.8 4.2 71 2.2 NW 11 13 6 7 1017.9 1017.9 0.0
28/12:30am 9.5 6.2 4.3 70 2.3 NW 11 13 6 7 1017.9 1017.9 0.0
28/12:00am 9.6 6.7 4.8 72 2.1 WNW 9 13 5 7 1018.2 1018.2 0.0
 
Date/Time
EST
Tmp

°C
App
Tmp
°C
Dew
Point
°C
Rel
Hum
%
Delta-T

°C
Wind Press
QNH
hPa
Press
MSL
hPa
Rain
since
9 am
mm
Dir
 
Spd
km/h
Gust
km/h
Spd
kts
Gust
kts
27/11:30pm 9.5 6.5 4.3 70 2.3 NW 9 13 5 7 1018.0 1018.0 0.0
27/11:00pm 10.5 7.6 4.6 67 2.6 NW 9 11 5 6 1018.1 1018.1 0.0
27/10:30pm 11.4 8.9 3.7 59 3.4 NW 6 7 3 4 1018.0 1018.0 0.0
27/10:00pm 12.2 8.4 3.7 56 3.8 NW 13 17 7 9 1017.9 1017.9 0.0
27/09:30pm 12.8 9.7 3.5 53 4.2 NNW 9 13 5 7 1017.9 1017.9 0.0
27/09:00pm 13.1 9.6 3.7 53 4.2 NNW 11 17 6 9 1018.0 1018.0 0.0
27/08:30pm 13.9 10.1 3.9 51 4.5 NNW 13 17 7 9 1017.7 1017.7 0.0
27/08:00pm 15.0 10.5 4.1 48 5.0 NW 17 22 9 12 1017.6 1017.6 0.0
27/07:30pm 15.0 11.4 5.0 51 4.7 NW 13 19 7 10 1017.6 1017.6 0.0
27/07:00pm 15.4 11.4 4.8 49 5.0 W 15 20 8 11 1017.3 1017.3 0.0
27/06:30pm 15.5 11.5 4.8 49 5.0 W 15 20 8 11 1016.9 1016.9 0.0
27/06:00pm 16.4 9.3 3.8 43 5.8 WSW 30 43 16 23 1016.7 1016.7 0.0
27/05:43pm 17.2 10.6 4.2 42 6.1 WSW 28 46 15 25 1016.4 1016.4 0.0
27/05:30pm 18.3 12.4 3.8 38 6.8 W 24 32 13 17 1015.7 1015.7 0.0
27/05:00pm 18.7 13.1 3.7 37 7.1 WNW 22 33 12 18 1015.2 1015.2 0.0
27/04:30pm 18.7 14.9 4.1 38 6.9 NW 13 17 7 9 1014.9 1014.9 0.0
27/04:00pm 19.7 15.6 4.2 36 7.4 NW 15 19 8 10 1014.8 1014.8 0.0

Latest Capital City Observations: Canberra | Sydney | Melbourne | Brisbane | Adelaide | Perth | Hobart | Darwin

Other Formats:

Comma delimited format used in spreadsheet applications
http://www.bom.gov.au/fwo/IDN60901/IDN60901.94765.axf

JavaScript Object Notation format (JSON) in row-major order
http://www.bom.gov.au/fwo/IDN60901/IDN60901.94765.json